Tracking 31011 objects as of 12-Jul-2025
HD Live streaming from Space Station
objects crossing your sky now

STARLINK-30073

Track STARLINK-30073 now!
10-day predictions
STARLINK-30073 is classified as:


NORAD ID: 56840
Int'l Code: 2023-079T
Perigee: 486.1 km
Apogee: 488.5 km
Inclination: 43.0 °
Period: 94.2 minutes
Semi major axis: 6858 km
RCS: Unknown
Launch date: June 4, 2023
Source: United States (US)
Launch site: AIR FORCE EASTERN TEST RANGE (AFETR)
Your satellite tracking list
Your tracking list is empty




NASA's NSSDC Master Catalog

Two Line Element Set (TLE):
1 56840U 23079T   25192.92012022  .00016839  00000-0  60210-3 0  9990
2 56840  43.0008 269.9727 0001741  20.6409 339.4513 15.28544716117107
Source of the keplerian elements: AFSPC